Home   Weather   Davis   Past weeks

Flag for USA Past Weather in Davis, California, USA — Yesterday and Last 2 Weeks

Now
33 °F

Fog.


Feels Like: 29 °F
Forecast: 38 / 58 °F
Wind: 5 mph from Northwest

Location: Sacramento International Airport

Current Time: Dec 4, 2016 at 8:33:21 am

Latest Report: Dec 4, 2016 at 7:53 am


Visibility: 1 mi

Pressure: 30.21 "Hg

Humidity: 100%

Dew Point: 33 °F

Location of DavisLocation

Past Weather in Davis — Graph

°F

Davis Temperature Yesterday

Maximum temperature yesterday: 57 °F (at 1:53 pm)
Minimum temperature yesterday: 33 °F (at 4:53 am)
Average temperature yesterday: 45 °F

High & Low Weather Summary for the Past Weeks

 TemperatureHumidityPressure
High61 °F (Nov 21, 1:53 pm)100% (Nov 19, 5:53 pm)30.36 "Hg (Nov 19, 5:53 pm)
Low32 °F (Dec 4, 5:53 am)42% (Dec 2, 11:53 am)29.81 "Hg (Nov 26, 5:53 am)
Average48 °F87%30.09 "Hg
* Reported Nov 19 6:53 am — Dec 4 6:53 am, Davis, Weather by CustomWeather, © 2016

Note: Actual official high and low records may vary slightly from our data, if they occured in-between our weather recording intervals... More about our weather records

Advertising

Davis Weather History for the Previous 24 Hours

Scroll right to see more
 ConditionsComfort  
Time TempWeatherWind HumidityBarometerVisibility
6:53 am
Sun, Dec 4
37 °FFog.No wind100%30.19 "Hg1 mi
5:53 am32 °FIce fog.6 mph100%30.18 "Hg1 mi
4:53 am35 °FFog.No wind100%30.17 "Hg3 mi
3:53 am39 °FFog.No wind96%30.17 "Hg4 mi
2:53 am38 °FFog.No wind97%30.18 "Hg6 mi
1:53 am37 °FClear.No wind100%30.19 "Hg7 mi
12:53 am40 °FClear.3 mph97%30.19 "Hg7 mi
11:53 pm
Sat, Dec 3
36 °FClear.No wind100%30.20 "Hg9 mi
10:53 pm44 °FClear.6 mph85%30.19 "Hg10 mi
9:53 pm44 °FClear.No wind85%30.18 "Hg10 mi
8:53 pm45 °FClear.3 mph82%30.18 "Hg10 mi
7:53 pm43 °FClear.5 mph86%30.18 "Hg10 mi
6:53 pm43 °FClear.No wind89%30.18 "Hg10 mi
5:53 pm50 °FClear.3 mph71%30.17 "Hg10 mi
4:53 pm53 °FPassing clouds.3 mph61%30.17 "Hg10 mi
3:53 pm56 °FPassing clouds.3 mph58%30.18 "Hg10 mi
2:53 pm57 °FPassing clouds.3 mph58%30.19 "Hg10 mi
1:53 pm57 °FPassing clouds.5 mph58%30.20 "Hg10 mi
12:53 pm55 °FSunny.3 mph59%30.23 "Hg9 mi
11:53 am52 °FSunny.3 mph69%30.26 "Hg9 mi
10:53 am50 °FPassing clouds.No wind74%30.28 "Hg7 mi
9:53 am47 °FScattered clouds.No wind77%30.29 "Hg9 mi
8:53 am43 °FFog.No wind93%30.29 "Hg6 mi
Weather by CustomWeather, © 2016

See weather overviewHow to use our weather pages